Hampton, VA

2:31 PM EST on February 25, 2017 (GMT -0500)
Langley Air Force Base

Weather History for KLFI - December, 2012

Change the Weather History Date:

Sunday, December 30, 2012

  Actual Average Record
Temperature  
Mean Temperature 36 °F -  
Max Temperature 44 °F 48 °F 72 °F (1971)
Min Temperature 29 °F 33 °F 16 °F (1943)
Degree Days  
Heating Degree Days 28    
Moisture  
Dew Point 24 °F    
Average Humidity 57    
Maximum Humidity 77    
Minimum Humidity 36    
Precipitation  
Precipitation 0.00 in - - ()
Sea Level Pressure  
Sea Level Pressure 30.16 in    
Wind  
Wind Speed 10 mph (WNW)    
Max Wind Speed 26 mph    
Max Gust Speed 36 mph    
Visibility 10 miles    
Events      
Averages and records for this station are not official NWS values.
T = Trace of Precipitation, MM = Missing Value Source: NWS Daily Summary

Daily Weather History Graph

Daily Weather History Graph

Search for Another Location

Airport or City:

Trip Planner

Search our weather history database for the weather conditions in past years. The results will help you decide how hot, cold, wet, or windy it might be!

Date:

Astronomy

Dec. 30, 2012 Rise Set
Actual Time 7:18 AM EST 4:57 PM EST
Civil Twilight 6:49 AM EST 5:26 PM EST
Nautical Twilight 6:17 AM EST 5:59 PM EST
Astronomical Twilight 5:45 AM EST 6:31 PM EST
Moon 7:23 PM EST (12/30) 8:29 AM EST (12/30)
Length of Visible Light 10h 37m
Length of Day
9h 39m
Waning Gibbous, 95% of the Moon is Illuminated
Dec 30
Waning Gibbous
Jan 4
Last Quarter
Jan 11
New
Jan 18
First Quarter
Jan 26
Full

Hourly Weather History & Observations

Time (EST) Temp. Windchill Dew Point Humidity Pressure Visibility Wind Dir Wind Speed Gust Speed Precip Events Conditions
12:55 AM 39.7 °F 34.9 °F 31.8 °F 73% 29.85 in 10.0 mi WNW 6.9 mph - N/A   Scattered Clouds
1:55 AM 39.7 °F 34.3 °F 29.3 °F 66% 29.88 in 10.0 mi WNW 8.1 mph - N/A   Clear
2:55 AM 39.6 °F 31.7 °F 26.6 °F 60% 29.92 in 10.0 mi WNW 13.8 mph - N/A   Clear
3:55 AM 38.8 °F 31.2 °F 27.0 °F 62% 29.95 in 10.0 mi WNW 12.7 mph - N/A   Clear
4:55 AM 36.9 °F 30.7 °F 27.7 °F 69% 29.97 in 10.0 mi WNW 8.1 mph - N/A   Clear
5:55 AM 35.4 °F 29.0 °F 27.3 °F 72% 30.02 in 10.0 mi West 8.1 mph - N/A   Clear
6:55 AM 37.2 °F 30.0 °F 25.3 °F 62% 30.06 in 10.0 mi WNW 10.4 mph - N/A   Clear
7:55 AM 37.2 °F 30.0 °F 24.1 °F 59% 30.11 in 10.0 mi WNW 10.4 mph - N/A   Clear
8:55 AM 39.0 °F 30.6 °F 23.4 °F 53% 30.15 in 10.0 mi WNW 15.0 mph 24.2 mph N/A   Clear
9:55 AM 40.8 °F 32.3 °F 23.4 °F 50% 30.18 in 10.0 mi NW 17.3 mph 23.0 mph N/A   Clear
10:55 AM 42.1 °F 31.9 °F 22.1 °F 45% 30.19 in 10.0 mi WNW 26.5 mph 35.7 mph N/A   Partly Cloudy
11:55 AM 42.4 °F 33.8 °F 21.4 °F 43% 30.20 in 10.0 mi NW 19.6 mph 32.2 mph N/A   Partly Cloudy
12:55 PM 43.9 °F 36.8 °F 21.7 °F 41% 30.18 in 10.0 mi NW 15.0 mph 32.2 mph N/A   Clear
1:55 PM 44.6 °F 37.4 °F 21.6 °F 40% 30.19 in 10.0 mi NNW 16.1 mph - N/A   Clear
2:55 PM 44.4 °F 37.2 °F 19.2 °F 37% 30.22 in 10.0 mi WNW 16.1 mph 23.0 mph N/A   Clear
3:55 PM 44.2 °F 37.3 °F 18.9 °F 36% 30.25 in 10.0 mi WNW 15.0 mph 23.0 mph N/A   Clear
4:55 PM 41.9 °F 36.3 °F 21.2 °F 44% 30.28 in 10.0 mi West 9.2 mph - N/A   Clear
5:55 PM 39.0 °F 34.8 °F 21.6 °F 50% 30.30 in 10.0 mi West 5.8 mph - N/A   Clear
6:55 PM 38.5 °F 34.1 °F 20.7 °F 49% 30.30 in 10.0 mi West 5.8 mph - N/A   Clear
7:55 PM 34.9 °F - 22.1 °F 60% 30.31 in 10.0 mi Calm Calm - N/A   Clear
8:55 PM 32.0 °F 28.7 °F 23.9 °F 72% 30.33 in 10.0 mi West 3.5 mph - N/A   Clear
9:55 PM 33.1 °F 26.9 °F 22.3 °F 65% 30.35 in 10.0 mi NNW 6.9 mph - N/A   Clear
10:55 PM 29.1 °F 24.1 °F 22.1 °F 75% 30.37 in 10.0 mi North 4.6 mph - N/A   Clear
11:55 PM 29.1 °F - 22.6 °F 77% 30.36 in 10.0 mi Calm Calm - N/A   Clear